Regional Weather Roundup
Issued by NWS

Home | Current Version | Previous Version | Graphics & Text | Print | Product List | Glossary On
Versions: 1 2 3 4 5 6 7 8 9 10 11 12 13 14 15 16 17 18 19 20 21 22 23 24 25 26 27 28 29 30 31 32 33 34 35 36 37 38 39 40 41 42 43 44 45 46 47 48 49 50
000
ASUS43 KOAX 060702
RWRNE

WEATHER ROUNDUP FOR NEBRASKA
NATIONAL WEATHER SERVICE OMAHA NE
200 AM CDT MON JUL 06 2015

NOTES: SATELLITE DATA IS BEING USED TO AUGMENT CLOUD COVER ABOVE
       12000 FEET.
       "FAIR" INDICATES FEW OR NO CLOUDS BELOW 12,000 FEET WITH NO
       SIGNIFICANT WEATHER AND/OR OBSTRUCTIONS TO VISIBILITY.

  * THESE STATIONS DO NOT REPORT WEATHER SUCH AS RAIN...SNOW OR FOG.

NEZ001>004-019>022-054>056-060800-
NEBRASKA PANHANDLE

CITY           SKY/WX    TMP DP  RH WIND       PRES   REMARKS
SCOTTSBLUFF    CLOUDY    62  60  93 N12G21    30.08R
ALLIANCE       CLOUDY    62  60  93 N15G24    30.04R
CHADRON        RAIN      61  59  93 NE10      30.07R FOG
KIMBALL          N/A    N/A N/A N/A MISG        N/A
SIDNEY         CLOUDY    64  61  90 N10       30.04R
$$

NEZ057>060-069>072-079>082-060800-
SOUTHWEST NEBRASKA

CITY           SKY/WX    TMP DP  RH WIND       PRES   REMARKS
NORTH PLATTE   LGT RAIN  68  63  84 N25G40    29.88F
IMPERIAL       CLOUDY    69  63  81 N15G24    29.95R
LEXINGTON      CLOUDY    73  67  81 N10       29.89R
MCCOOK         CLOUDY    76  66  71 N9        29.87R
$$

NEZ005>010-023>029-035>040-094-060800-
NORTH CENTRAL NEBRASKA

CITY           SKY/WX    TMP DP  RH WIND       PRES   REMARKS
VALENTINE      LGT RAIN  65  64  97 NE12      29.97F
AINSWORTH      RAIN      65  65 100 N16       29.95F
BROKEN BOW     LGT RAIN  70  67  90 NW17G30   29.89F
O`NEILL        RAIN      69  68  97 NW16G24   29.83S
ORD            LGT RAIN  70  67  90 NW6       29.85S
$$

NEZ041-046>049-061>064-073>077-083>087-060800-
SOUTH CENTRAL NEBRASKA

CITY           SKY/WX    TMP DP  RH WIND       PRES   REMARKS
GRAND ISLAND   CLOUDY    80  63  55 NW14      29.86R
AURORA         CLOUDY    79  64  60 CALM      29.83R
HASTINGS       LGT RAIN  83  64  52 W7G17     29.84R
KEARNEY *      CLOUDY    72  66  83 NE15      29.88R THUNDER
$$

NEZ011>018-030>034-042>045-060800-
NORTHEAST NEBRASKA

CITY           SKY/WX    TMP DP  RH WIND       PRES   REMARKS
NORFOLK        CLOUDY    80  71  74 W17G29    29.82R
BLAIR          CLOUDY    80  72  75 S13G18    29.81R
COLUMBUS *     CLOUDY    82  70  65 SW8       29.79R
FREMONT        CLOUDY    81  69  67 SE8       29.79R
TEKAMAH        CLOUDY    77  71  82 SE12      29.78S
$$

NEZ050>053-065>068-078-088>093-060800-
SOUTHEAST NEBRASKA

CITY           SKY/WX    TMP DP  RH WIND       PRES   REMARKS
LINCOLN        CLOUDY    81  71  71 S14       29.78F
OMAHA EPPLEY   CLOUDY    80  76  87 S13       29.79F
FALLS CITY     CLOUDY    82  73  74 S13       29.83F
PLATTSMOUTH    CLOUDY    80  71  74 S16       29.81F
$$

NEZ044-045-051>053-067-060800-
OMAHA AREA

CITY           SKY/WX    TMP DP  RH WIND       PRES   REMARKS
OMAHA EPPLEY   CLOUDY    80  76  87 S13       29.79F
BLAIR          CLOUDY    80  72  75 S13G18    29.81R
FREMONT        CLOUDY    81  69  67 SE8       29.79R
MILLARD        LGT RAIN  80  75  83 S13       29.79S
OFFUTT AFB     CLOUDY    80  75  85 SE7       29.80F
PLATTSMOUTH    CLOUDY    80  71  74 S16       29.81F
$$


USA.gov is the U.S. government's official web portal to all federal, state and local government web resources and services.